Location: Bill Sadowski Park
(25.6087°N, 80.3181°W)
Time: 13:09:38
(UTC-04:00)

ISS - Visible Passes

Search period start: 25 June 2018 00:00
Search period end: 05 July 2018 00:00
Orbit: 403 x 407 km, 51.6° (Epoch: 26 June)

Date Brightness Start Highest point End Pass type
(mag) Time Alt. Az. Time Alt. Az. Time Alt. Az.
26 Jun -0.9 05:34:19 10° SE 05:35:14 11° SE 05:36:09 10° ESE visible
28 Jun -2.6 05:25:15 17° S 05:27:20 34° SE 05:30:21 10° ENE visible
29 Jun -1.3 04:35:32 15° ESE 04:35:32 15° ESE 04:37:20 10° E visible
30 Jun -3.7 05:18:24 36° WSW 05:19:31 61° NW 05:22:46 10° NE visible
01 Jul -2.2 04:28:30 33° ENE 04:28:30 33° ENE 04:30:38 10° NE visible
01 Jul -1.2 06:03:35 10° NW 06:04:07 10° NW 06:04:38 10° NNW visible
02 Jul -2.0 05:11:11 19° WNW 05:11:48 20° NW 05:14:19 10° N visible
03 Jul -1.6 04:21:08 24° NNE 04:21:08 24° NNE 04:22:44 10° NNE visible
